Vancleve, KY

10:45 PM EST on February 25, 2017 (GMT -0500)
Carroll

Weather History for KJKL - February, 2011

Change the Weather History Date:

Monday, February 21, 2011

  Actual Average Record
Temperature  
Mean Temperature 53 °F 40 °F  
Max Temperature 64 °F 49 °F 75 °F (2017)
Min Temperature 42 °F 31 °F 14 °F (1988)
Degree Days  
Heating Degree Days 12 25  
Month to date heating degree days 533 569  
Since 1 July heating degree days 3409 3135  
Cooling Degree Days 0 0  
Month to date cooling degree days 0 0  
Year to date cooling degree days 0 0  
Growing Degree Days 4 (Base 50)    
Moisture  
Dew Point 49 °F    
Average Humidity 70    
Maximum Humidity 93    
Minimum Humidity 47    
Precipitation  
Precipitation 0.48 in 0.13 in 1.63 in (2015)
Month to date precipitation 1.41 2.79  
Year to date precipitation 4.13 6.40  
Snow  
Snow 0.00 in 0.20 in 2.40 in (2009)
Month to date snowfall 3.9 5.6  
Since 1 July snowfall 36.0 18.2  
Snow Depth 0.00 in    
Sea Level Pressure  
Sea Level Pressure 29.70 in    
Wind  
Wind Speed 9 mph (WSW)    
Max Wind Speed 22 mph    
Max Gust Speed 37 mph    
Visibility 8 miles    
Events Rain    
T = Trace of Precipitation, MM = Missing Value Source: NWS Daily Summary

Daily Weather History Graph

Daily Weather History Graph

Search for Another Location

Airport or City:

Trip Planner

Search our weather history database for the weather conditions in past years. The results will help you decide how hot, cold, wet, or windy it might be!

Date:

Astronomy

Feb. 21, 2011 Rise Set
Actual Time 7:15 AM EST 6:18 PM EST
Civil Twilight 6:49 AM EST 6:45 PM EST
Nautical Twilight 6:18 AM EST 7:15 PM EST
Astronomical Twilight 5:48 AM EST 7:46 PM EST
Moon 10:44 PM EST (2/21) 8:50 AM EST (2/21)
Length of Visible Light 11h 56m
Length of Day
11h 02m
Waning Gibbous, 84% of the Moon is Illuminated
Feb 21
Waning Gibbous
Feb 24
Last Quarter
Mar 4
New
Mar 12
First Quarter
Mar 19
Full

Hourly Weather History & Observations

Time (EST) Temp. Windchill Dew Point Humidity Pressure Visibility Wind Dir Wind Speed Gust Speed Precip Events Conditions
12:53 AM 57.0 °F - 39.9 °F 53% 29.79 in 10.0 mi Variable 5.8 mph - N/A   Mostly Cloudy
1:53 AM 57.9 °F - 42.1 °F 56% 29.78 in 10.0 mi SSW 8.1 mph 20.7 mph N/A   Partly Cloudy
2:53 AM 59.0 °F - 45.0 °F 60% 29.77 in 10.0 mi Variable 5.8 mph 25.3 mph N/A   Overcast
3:53 AM 62.1 °F - 48.0 °F 60% 29.75 in 10.0 mi WSW 12.7 mph 35.7 mph N/A   Overcast
4:53 AM 61.0 °F - 48.9 °F 64% 29.75 in 10.0 mi WSW 13.8 mph 27.6 mph 0.00 in Rain Light Rain
5:53 AM 60.1 °F - 50.0 °F 69% 29.75 in 9.0 mi WSW 18.4 mph 31.1 mph 0.00 in Rain Light Rain
6:02 AM 60.8 °F - 50.0 °F 68% 29.76 in 9.0 mi SW 9.2 mph 31.1 mph 0.00 in Rain Light Rain
6:53 AM 57.9 °F - 50.0 °F 75% 29.75 in 10.0 mi SW 5.8 mph 16.1 mph 0.00 in   Overcast
7:50 AM 59.0 °F - 50.0 °F 72% 29.76 in 10.0 mi SW 8.1 mph - N/A   Overcast
7:53 AM 59.0 °F - 50.0 °F 72% 29.75 in 10.0 mi Variable 4.6 mph - N/A   Overcast
8:36 AM 60.8 °F - 50.0 °F 68% 29.76 in 10.0 mi Variable 5.8 mph - N/A   Overcast
8:53 AM 60.1 °F - 50.0 °F 69% 29.75 in 10.0 mi Variable 5.8 mph 17.3 mph N/A   Overcast
9:53 AM 61.0 °F - 50.0 °F 67% 29.74 in 10.0 mi WSW 8.1 mph 19.6 mph N/A   Overcast
10:53 AM 61.0 °F - 50.0 °F 67% 29.73 in 10.0 mi SSW 8.1 mph - N/A   Overcast
11:53 AM 64.0 °F - 50.0 °F 60% 29.71 in 10.0 mi Variable 5.8 mph 20.7 mph N/A   Overcast
12:53 PM 63.0 °F - 48.9 °F 60% 29.69 in 10.0 mi SW 9.2 mph 17.3 mph N/A   Overcast
1:00 PM 62.6 °F - 48.2 °F 59% 29.71 in 10.0 mi Variable 4.6 mph - N/A   Overcast
1:53 PM 64.0 °F - 48.9 °F 58% 29.67 in 10.0 mi Variable 6.9 mph 19.6 mph N/A   Overcast
2:53 PM 62.1 °F - 48.9 °F 62% 29.65 in 10.0 mi Variable 4.6 mph - N/A   Overcast
3:13 PM 60.8 °F - 48.2 °F 63% 29.68 in 10.0 mi Variable 6.9 mph - N/A   Overcast
3:53 PM 61.0 °F - 48.9 °F 64% 29.64 in 10.0 mi SW 8.1 mph - N/A   Overcast
4:36 PM 60.8 °F - 50.0 °F 68% 29.65 in 10.0 mi SW 6.9 mph - 0.00 in   Overcast
4:53 PM 62.1 °F - 48.9 °F 62% 29.62 in 10.0 mi Variable 5.8 mph - 0.00 in   Overcast
5:53 PM 62.1 °F - 46.9 °F 58% 29.59 in 10.0 mi SSW 10.4 mph 16.1 mph N/A   Overcast
6:53 PM 63.0 °F - 46.9 °F 56% 29.59 in 10.0 mi Variable 6.9 mph - N/A   Overcast
7:53 PM 63.0 °F - 48.9 °F 60% 29.57 in 10.0 mi SSW 11.5 mph 29.9 mph 0.00 in Rain Light Rain
8:49 PM 57.2 °F - 53.6 °F 88% 29.61 in 2.0 mi West 11.5 mph 24.2 mph 0.12 in Rain Heavy Rain
8:50 PM 57.0 °F - 53.1 °F 87% 29.60 in 2.5 mi West 11.5 mph 24.2 mph 0.12 in Rain Rain
8:54 PM 57.2 °F - 53.6 °F 88% 29.63 in 3.0 mi WNW 17.3 mph 24.2 mph 0.00 in Rain Light Rain
9:00 PM 55.4 °F - 53.6 °F 94% 29.64 in 1.8 mi West 15.0 mph 24.2 mph 0.07 in Rain Heavy Rain
9:06 PM 55.4 °F - 53.6 °F 94% 29.65 in 2.0 mi WSW 13.8 mph 24.2 mph 0.10 in Rain Heavy Rain
9:14 PM 55.4 °F - 53.6 °F 94% 29.66 in 2.5 mi West 13.8 mph 24.2 mph 0.15 in Rain Rain
9:19 PM 55.4 °F - 53.6 °F 94% 29.67 in 3.0 mi WSW 16.1 mph 26.5 mph 0.17 in Rain Rain
9:26 PM 55.4 °F - 53.6 °F 94% 29.68 in 4.0 mi WNW 17.3 mph 29.9 mph 0.18 in Rain Rain
9:46 PM 53.6 °F - 48.2 °F 82% 29.70 in 7.0 mi West 13.8 mph 34.5 mph 0.25 in Rain Light Rain
9:53 PM 52.0 °F - 48.9 °F 89% 29.69 in 7.0 mi WNW 12.7 mph 23.0 mph 0.25 in Rain Light Rain
10:17 PM 50.0 °F - 46.4 °F 87% 29.72 in 10.0 mi WNW 11.5 mph 23.0 mph 0.02 in Rain Light Rain
10:29 PM 48.2 °F - 44.6 °F 87% 29.72 in 5.0 mi West 10.4 mph 16.1 mph 0.04 in Rain Rain
10:53 PM 46.9 °F - 44.1 °F 90% 29.74 in 6.0 mi WSW 6.9 mph - 0.08 in Rain Light Rain
11:00 PM 46.4 °F 41.5 °F 44.6 °F 93% 29.77 in 10.0 mi West 10.4 mph 16.1 mph 0.00 in Rain Light Rain
11:23 PM 44.6 °F 43.1 °F 42.8 °F 93% 29.76 in 10.0 mi Variable 3.5 mph - 0.03 in Rain Light Rain
11:53 PM 43.0 °F 36.4 °F 39.9 °F 89% 29.79 in 10.0 mi West 12.7 mph 19.6 mph 0.03 in   Overcast